Regional Weather Roundup
Issued by NWS Pendleton, OR

Home | Current Version | Previous Version | Text Only | Print | Product List | Glossary On
Versions: 1 2 3 4 5 6 7 8 9 10 11 12 13 14 15 16 17 18 19 20 21 22 23 24 25 26 27 28 29 30 31 32 33 34 35 36 37 38 39 40 41 42 43 44 45 46 47 48 49 50
000
ASUS46 KPDT 311225
RWRPDT
PENDLETON REGIONAL WEATHER ROUNDUP
NATIONAL WEATHER SERVICE PENDLETON OREGON
500 AM PDT THU JUL 31 2014

NOTE: FAIR INDICATES FEW OR NO CLOUDS BELOW 12,000 FEET WITH NO
SIGNIFICANT WEATHER AND/OR OBSTRUCTIONS TO VISIBILITY.

# INDICATES UNOFFICIAL STATION AND DATA

WAZ520-311310-
EAST SLOPES OF WASHINGTON CASCADES

CITY            SKY/WX      TMP DP  RH  WIND    PRES   REMARKS
#BUMPING DAM    N/A         51  N/A N/A S1      N/A
#CLE ELUM HS    N/A         55  46  72  CALM    30.03S
#CLE ELUM LAKE  N/A         61  41  48  CALM    29.95R
#CLIFFDEL 2NW   N/A         53  42  66  N1      N/A
#GLENWOOD       N/A         48  45  89  CALM    29.97R
#MANASTASH CYN  N/A         61  26  26  CALM    30.08
#NELSON 3SW     N/A         55  33  43  CALM    30.17R
#NILE           N/A         54  43  66  CALM    29.30S
#RONALD 2NW     N/A         60  43  53  NE1     29.99S
#TROUT LAKE 1NE N/A         57  44  62  NW5     29.96S
$$

WAZ521-311310-
SIMCOE HIGHLANDS

CITY            SKY/WX      TMP DP  RH  WIND    PRES   REMARKS
#BICKLETON HS   N/A         68  19  15  W2      30.12S
#CENTERVILLE 1SWN/A         56  50  80  CALM    29.91S
#GOLDENDALE 1NE N/A         57  39  51  N6      N/A
#GOLDENDALE 1S  N/A         55  47  74  CALM    30.01S
#GOLDENDALE 5WNWN/A         58  47  67  CALM    29.92S
#GOODNOE HILLS  N/A         68  56  65  NW5     29.95R
#LYLE 6NE       N/A         65  58  78  S5      29.92S
$$

WAZ026-311310-
KITTITAS VALLEY

CITY            SKY/WX      TMP DP  RH  WIND    PRES   REMARKS
ELLENSBURG AP   CLEAR       64  44  48  N7      30.04S
6HR MIN TEMP:   60; 6HR MAX TEMP:   76;

#ELLENSBURG CWU N/A         66  46  48  NW7     29.91S
#ELLENSBURG 1E  N/A         57  47  69  CALM    N/A
$$

WAZ027-311310-
YAKIMA VALLEY

CITY            SKY/WX      TMP DP  RH  WIND    PRES   REMARKS
YAKIMA AIRPORT  CLEAR       72  42  34  W7      30.01S
6HR MIN TEMP:   71; 6HR MAX TEMP:   82;

YAKIMA-VAGABOND CLEAR       65  40  40  E14     30.03S
#COWICHE 1N     N/A         70  40  34  NW9     30.13S
#DONALD 2NE     N/A         72  28  19  S1      30.31R
#GRANDVIEW      N/A         61  50  67  CALM    29.95R
#MABTON         N/A         70  50  49  SW1     29.97R
#MOXEE 2E       N/A         59  37  44  E1      29.94S
#NACHES 2SW     N/A         68  43  40  W8      30.04R
#OUTLOOK DOT    N/A         N/A N/A N/A NE2     N/A
#SELAH 8E       N/A         60  37  42  SE6     N/A
#TERRACE HTS    N/A         71  40  32  S1      29.88S
#TOPPENISH      N/A         70  48  46  CALM    29.85R
#WAPATO 4NE     N/A         72  30  21  SE1     30.31R
#WEST VALLEY    N/A         63  46  54  CALM    29.91S
#W YAKIMA       N/A         70  44  39  NE2     29.93R
#WHITE SWAN 5E  N/A         56  51  83  CALM    29.94R
#WILEY CITY 3W  N/A         59  28  30  CALM    30.01R
$$

WAZ028-311310-
LOWER COLUMBIA BASIN...WASHINGTON

CITY            SKY/WX      TMP DP  RH  WIND    PRES   REMARKS
PASCO           CLEAR       60  57  90  N5      29.97R
6HR MIN TEMP:   60; 6HR MAX TEMP:   78;

PROSSER AWOS    N/A         59  52  78  E2      30.01R
RICHLAND AWOS   CLEAR       68  48  49  SE5     29.96R
#BASIN CITY 5SW N/A         60  54  81  CALM    29.97R
#BENTON CITY    N/A         66  47  50  CALM    29.84R
#CONNELL 5N     N/A         60  46  60  CALM    29.92R
#CONNELL 5NW    N/A         60  50  69  CALM    29.88R
#ELTOPIA 6NW    N/A         69  51  53  S1      28.95R
#KENNEWICK 3S   N/A         74  46  37  CALM    29.92R
#PASCO-BROADMOORN/A         67  55  65  NE1     29.85
#PATERSON       N/A         70  59  68  NE1     29.92R
#PROSSER        N/A         73  39  29  CALM    29.92R
#SAGEMOOR 2W    N/A         63  54  72  CALM    29.78R
#TOUCHET 2S     N/A         60  52  75  CALM    29.90S
#WEST PASCO     N/A         66  51  58  CALM    29.94R
$$

WAZ029-311310-
FOOTHILLS OF THE BLUES...WASHINGTON

CITY            SKY/WX      TMP DP  RH  WIND    PRES   REMARKS
WALLA WALLA AP  CLEAR       77  48  36  S6      30.00S
6HR MIN TEMP:   76; 6HR MAX TEMP:   85;

#COLLEGE PLACE  N/A         74  51  44  CALM    29.97R
#DAYTON SCHOOL  N/A         66  42  42  CALM    30.00S
#LOWDEN 2SE     N/A         62  52  70  E1      29.93S
#PLEASANT VIEW 1N/A         71  44  38  SW6     29.93S
#PRESCOTT       N/A         57  47  69  CALM    29.92R
#SUDBURY        N/A         60  N/A N/A CALM    N/A
#WHITMAN COLLEGEN/A         76  50  40  S2      29.96R
#WAITSBURG 8N   N/A         70  33  25  S3      29.82S
#WALLA WALLA 5E N/A         77  43  30  CALM    N/A
#WALLA WALLA U  N/A         74  52  46  CALM    29.91S
#WHITMAN MISSIONN/A         64  55  73  CALM    29.94R
$$

WAZ030-311310-
BLUE MOUNTAINS...WASHINGTON

CITY            SKY/WX      TMP DP  RH  WIND    PRES   REMARKS
$$

ORZ009-041-WAZ024-311310-
COLUMBIA RIVER GORGE

CITY            SKY/WX      TMP DP  RH  WIND    PRES   REMARKS
HOOD RIVER AP   CLEAR       61  50  67  CALM    30.02S
THE DALLES AP   CLEAR       69  56  63  W5      29.98S
6HR MIN TEMP:   69; 6HR MAX TEMP:   81;

#ARLINGTON AIRPON/A         72  56  57  W8      N/A
#ARLINGTON HS   N/A         71  55  57  NW2     29.84R
#CELILO DOT     N/A         72  54  53  CALM    N/A
#MOSIER 1S      N/A         64  53  67  CALM    30.06S
#MURDOCK        N/A         73  60  64  W20     29.97F
#RUFUS DOT      N/A         73  58  59  N1      N/A

$$

ORZ510-311310-
NORTH CENTRAL OREGON

CITY            SKY/WX      TMP DP  RH  WIND    PRES   REMARKS
#CHENOWITH 1W   N/A         64  56  75  NW18    N/A
#COW CYN RST AREN/A         72  31  22  NE3     N/A
#GRASS VALLEY 1SN/A         63  40  43  CALM    29.95R
#KENT DOT       N/A         67  32  27  CALM    N/A
#MAUPIN SCHOOL  N/A         66  47  50  CALM    30.03F
#MORO SCHOOL    N/A         70  55  59  SE1     30.03F
#SHANIKO 5WSW   N/A         73  30  20  NE7     N/A
#SHANIKO 4NW    N/A         73  35  25  N3      30.14F
#TYGH VALLEY 2NEN/A         62  42  48  CALM    29.95S
#WAPANITIA AIRPON/A         66  48  52  W1      29.93F
#WASCO DOT      N/A         63  53  70  CALM    N/A
#WASCO AIRPORT  N/A         69  52  55  W5      N/A
#WASCO 5NE      N/A         68  54  61  W3      29.91F
$$

ORZ511-311310-
CENTRAL OREGON

CITY            SKY/WX      TMP DP  RH  WIND    PRES   REMARKS
MADRAS AIRPORT  PTCLDY      59  45  60  S7      30.10R
REDMOND AIRPORT MOCLDY      63  40  43  E7      30.12R
6HR MIN TEMP:   59; 6HR MAX TEMP:   76;

#BEND 6E        N/A         67  43  42  CALM    29.85R
#BEND 1SW       N/A         64  43  46  CALM    N/A
#BEND-AWBREY    N/A         69  45  42  N1      29.92S
#BEND-KIM LN    N/A         67  49  52  CALM    30.12S
#CULVER         N/A         61  47  60  CALM    30.06R
#LAKE BILLY CHINN/A         65  27  24  CALM    30.13R
#POWELL BUTTE 3EN/A         68  40  36  SE2     N/A
#POWELL BUTTE   N/A         72  42  34  W3      29.77S
#PRINEVILLE 3N  N/A         61  49  65  E2      29.89S


ORZ509-311310-
EAST SLOPES OF OREGON CASCADES

CITY            SKY/WX      TMP DP  RH  WIND    PRES   REMARKS
#BLUE BOX PASS  N/A         64  10  12  CALM    N/A
#BLACK BUTTE RNCN/A         57  46  67  CALM    29.94R
#CAMP SHERMAN   N/A         49  44  83  CALM    29.98R
#LA PINE DOT    N/A         55  45  69  CALM    N/A
#LA PINE 4NW    N/A         53  45  74  CALM    29.98S
#LAVA BUTTE DOT N/A         63  43  48  CALM    N/A
#MT BACHELOR-MIDN/A         62  37  39  E18G26  N/A
#SISTERS AIRPOR N/A         55  55  100 CALM    30.11S
#SISTERS ODOT   N/A         54  N/A N/A CALM    N/A
#SISTERS 1NW    N/A         53  50  89  NE6     N/A
#SISTERS 3N     N/A         53  50  89  CALM    N/A
#SUNRIVER       N/A         58  50  75  S1      29.84R
#SUNRIVER AP    N/A         56  50  80  CALM    29.91S
#SUTTLE LK DOT  N/A         53  47  80  W5      N/A
#TUMALO 3W      N/A         70  41  35  SW6     29.81S
#WANOGA BUTTE D N/A         64  38  38  W3      N/A

$$

ORZ044-311310-
LOWER COLUMBIA BASIN...OREGON

CITY            SKY/WX      TMP DP  RH  WIND    PRES   REMARKS
HERMISTON       CLEAR       62  54  75  CALM    29.97R
6HR MIN TEMP:   62; 6HR MAX TEMP:   88;

#BOARDMAN SCHOOLN/A         71  57  61  CALM    29.94R
#BOARDMAN 3W    N/A         66  57  73  SW3     29.68R
#BOARDMAN 8SW   N/A         67  56  68  SW5     29.93R
#IONE SCHOOL    N/A         65  43  45  E2      29.99R
#IRRIGON 4NW    N/A         67  61  81  NE2     N/A
#UMATILLA SCHOOLN/A         66  62  87  CALM    30.01F
#UMATILLA       N/A         66  53  63  CALM    29.94R
$$

ORZ507-311310-
NORTHERN FOOTHILLS OF THE BLUES

CITY            SKY/WX      TMP DP  RH  WIND    PRES   REMARKS
PENDLETON AIRPT CLEAR       69  45  42  E3      30.01S
6HR MIN TEMP:   68; 6HR MAX TEMP:   83;

#ADAMS 3WNW     N/A         62  44  52  CALM    29.91R
#ATHENA         N/A         63  48  58  CALM    29.93S
#HELIX SCHOOL   N/A         62  48  60  CALM    29.91S
#HELIX 3N       N/A         67  48  50  CALM    30.00S
#HOLDMAN 5SE    N/A         63  47  56  CALM    30.02R
#HOLDMAN 6E     N/A         70  49  47  CALM    29.74R
#M-F FERNDALE   N/A         73  50  44  CALM    29.97S
#M-F GROVE ELEM N/A         72  47  41  CALM    29.98S
#M-FREEWATER 5SEN/A         72  49  44  E1      30.00S
#PDT AQUATIC CTRN/A         68  45  44  CALM    29.95S
#PENDLETON DNTN N/A         67  44  43  CALM    29.98R
#PDT SUNRIDGE   N/A         62  48  60  CALM    30.02R
#PENDLETON 7NW  N/A         63  45  52  CALM    27.30F
#PILOT ROCK     N/A         70  40  34  S1      30.04S
#TUTUILLA       N/A         66  50  56  CALM    29.88R
#UMAPINE 2E     N/A         64  54  70  CALM    29.94R
#WESTON SCHOOL  N/A         71  45  39  W2      30.01S

$$

ORZ508-311310-
SOUTHERN FOOTHILLS OF THE BLUES

CITY            SKY/WX      TMP DP  RH  WIND    PRES   REMARKS
#AJAX           N/A         73  42  33  W1      29.98S
#CONDON SCHOOL  N/A         70  40  34  CALM    30.05S
#CONDON 5W      N/A         72  39  30  NW6     30.09S
#FOSSIL SCHOOL  N/A         62  37  39  CALM    30.07R
#HEPPNER 4NE    N/A         69  42  37  E1      29.89S
#LEXINGTON 2SE  N/A         68  45  44  CALM    30.00S
#MIKKALO        N/A         70  44  39  S1      30.03S
#OLEX 4N        N/A         67  50  54  CALM    29.98R
#RUGGS 5NE      N/A         68  36  31  CALM    30.27F
#RUGGS 2SW      N/A         72  39  30  SW7     29.95S

$$

ORZ502-503-311310-
BLUE MOUNTAINS

CITY            SKY/WX      TMP DP  RH  WIND    PRES   REMARKS
MEACHAM         PTCLDY      51  47  86  CALM    30.16S
6HR MIN TEMP:   50; 6HR MAX TEMP:   63;

#BATTLE MTN DOT N/A         63  45  52  CALM    N/A
#HARDMAN 10S    N/A         66  38  36  CALM    30.22S
#HEPPNER 15SE   N/A         63  36  36  SE1     30.11S
#LADD CYN SMT   N/A         55  38  53  CALM    N/A
#LADD CREEK ODOTN/A         60  43  53  S6      N/A
#LONG CREEK HS  N/A         65  48  54  CALM    30.11S
#N POWDER DOT   N/A         51  50  96  SW2     N/A
#PIKES PEAK     N/A         77  45  32  SW7     27.99S
#TOLLGATE 9W    N/A         66  49  54  E1      N/A
#TROY SCHOOL    N/A         63  52  67  CALM    29.82R
#UKIAH          N/A         53  46  77  CALM    29.98S
#WESTON 4E      N/A         69  44  40  E5      29.83F
$$

ORZ505-311310-
JOHN DAY BASIN

CITY            SKY/WX      TMP DP  RH  WIND    PRES   REMARKS
JOHN DAY        CLEAR       65  40  40  E7      30.16S
#MONUMENT HS    N/A         69  47  45  CALM    29.81R
#MT. VERNON 5SE N/A         66  42  42  CALM    30.13S
#WINLOCK        N/A         67  35  30  CALM    30.19R
$$

ORZ506-311310-
OCHOCO AND JOHN DAY HIGHLANDS

CITY            SKY/WX      TMP DP  RH  WIND    PRES   REMARKS
#BUCK CREEK DOT N/A         69  43  39  E6      N/A
#HORSE RIDGE DO N/A         62  37  39  SW3     N/A
#KEYES SMT DOT  N/A         73  32  22  NE3     N/A
#PINE MTN OBS   N/A         65  36  34  CALM    N/A
#PRAIRIE CITY   N/A         50  43  77  CALM    30.19R
#SENECA 9NW     N/A         48  38  68  CALM    29.94S
$$

ORZ049-311310-
GRANDE RONDE VALLEY

CITY            SKY/WX      TMP DP  RH  WIND    PRES   REMARKS
LA GRANDE       PTCLDY      59  39  47  CALM    30.10S
#COVE           N/A         63  50  62  E3      30.02S
#COVE SCHOOL    N/A         62  48  60  CALM    30.08F
#COVE 6NW       N/A         56  47  72  CALM    29.98S
#ELGIN 3N       N/A         56  44  64  CALM    29.84S
#ELGIN 1E       N/A         58  47  67  CALM    N/A
#IMBLER SCHOOL  N/A         75  46  36  CALM    30.06S
#ISLAND CITY 4N N/A         59  48  67  CALM    29.89R
#LADD CYN DOT   N/A         65  41  41  SE12    N/A
#UNION 1S       N/A         63  46  54  CALM    29.84S
$$

ORZ050-311310-
WALLOWA COUNTY

CITY            SKY/WX      TMP DP  RH  WIND    PRES   REMARKS
JOSEPH AIRPORT  CLEAR       57  45  64  S5      30.19S
#ENTERPRISE AP  N/A         57  41  55  CALM    30.10R
#ENTERPRISE HS  N/A         52  46  80  CALM    30.16R
#IMNAHA SCHOOL  N/A         64  42  45  CALM    30.07R
#IMNAHA 10S     N/A         66  42  42  SW5     30.10S
#JOSEPH 3N      N/A         51  45  80  CALM    30.17S
#JOSEPH 3W      N/A         67  40  37  SW2     30.04S
#LOSTINE        N/A         55  45  69  CALM    29.75S
#MT HOWARD 8000 N/A         61  35  38  CALM    30.47F
#PROMISE 1S     N/A         62  45  54  CALM    30.03R
#SHEEP RDG 7000 N/A         66  34  30  CALM    29.91R
#WALLOWA SCHOOL N/A         54  49  83  CALM    30.83S



$$



USA.gov is the U.S. government's official web portal to all federal, state and local government web resources and services.